Theta_e
279 280 279 280 280 279 279 280 279 279 279 279 279 279 280 281 281 280 282 282 281 281 282 283 281 280 279 277 276 275 275 274 274 274 273 273 272 272 271 271 271 271 271 271 272 272 272 272 273 272 275 281 284 283 283 284 285 286 286 287 287 287 287 287 286 287 287 287 288 288 288 289 289 289 289 289 289 289 289 289 289 289 289 289 289 289 289
279 279 279 279 279 279 279 279 279 279 279 279 279 279 279 280 280 280 281 280 280 281 282 281 278 277 276 275 275 274 273 273 272 272 272 271 271 270 270 270 270 270 270 270 271 271 271 270 271 271 272 278 282 282 282 282 283 284 285 285 285 285 285 285 285 286 286 286 286 287 287 287 287 288 288 288 288 288 288 288 288 288 288 288 287 287 287
278 278 279 279 279 279 279 279 279 279 279 279 279 279 279 279 279 279 279 280 280 280 280 278 276 275 274 273 273 272 271 271 271 270 270 270 269 269 269 269 269 269 269 269 269 270 270 269 270 270 270 274 280 281 280 281 281 282 283 283 283 283 284 284 285 285 285 285 285 285 286 286 286 286 286 287 287 287 287 287 287 287 287 286 286 285 285
277 278 278 278 278 278 278 278 278 278 278 279 279 279 279 279 279 279 279 280 279 277 276 275 274 274 273 272 271 271 270 270 270 269 269 268 268 268 268 268 267 267 268 268 268 268 269 268 268 269 269 271 277 280 279 280 280 281 281 282 281 282 282 283 283 284 284 284 284 284 284 285 285 285 285 286 286 286 286 286 286 286 285 285 284 284 283
277 277 277 277 278 277 276 277 277 277 277 277 278 278 278 278 278 279 278 277 274 273 272 272 272 272 272 272 270 269 269 268 268 268 267 267 267 266 267 266 266 266 267 267 267 267 267 267 267 268 268 269 274 278 278 278 279 279 280 280 280 281 281 281 282 282 283 283 283 283 283 284 284 284 284 285 285 285 285 285 285 285 285 284 283 282 282
276 277 277 277 276 274 275 277 277 276 277 277 277 276 275 274 274 274 274 273 270 270 270 269 269 269 270 271 269 268 267 267 267 267 266 266 266 265 265 266 265 266 266 266 266 266 266 266 266 266 267 267 271 275 277 277 278 278 278 279 279 280 280 280 281 281 282 282 282 282 282 283 283 283 283 284 284 284 284 284 284 284 284 284 283 282 281
276 276 276 275 274 274 276 277 276 275 276 275 275 274 270 268 269 270 270 270 268 268 268 267 267 267 268 269 268 266 266 266 265 266 266 265 265 264 264 265 265 265 264 264 265 265 265 265 265 265 266 266 269 273 275 275 276 276 277 277 278 278 279 279 280 280 281 281 281 281 282 282 282 282 282 283 283 283 283 283 283 284 284 283 282 280 280
276 275 275 274 274 275 277 276 274 273 273 273 274 274 269 265 266 267 266 267 266 266 266 265 265 266 266 268 267 265 265 265 264 264 265 264 264 264 264 264 264 263 263 263 264 264 264 264 264 264 265 265 268 272 273 274 274 275 275 276 276 276 277 278 279 279 280 280 280 280 281 281 281 281 282 282 282 282 282 282 282 283 283 282 281 280 279
275 275 275 275 275 276 276 274 271 270 270 270 271 274 269 263 263 265 265 265 265 264 264 264 264 264 266 269 267 264 263 264 264 264 264 264 264 263 263 263 262 262 262 262 263 263 263 263 263 263 263 264 267 270 271 271 272 273 274 274 274 275 275 276 277 278 278 279 279 280 280 280 280 280 281 281 281 281 281 281 282 282 282 282 282 280 279
276 275 275 274 275 275 273 271 269 268 269 269 269 272 270 263 262 264 264 263 264 263 262 262 262 264 268 272 268 263 262 263 263 263 263 263 263 263 262 262 262 262 261 261 262 262 262 262 262 262 263 264 266 268 269 269 270 271 271 272 273 273 274 274 275 276 277 278 278 279 279 279 279 280 280 280 280 280 281 281 281 281 282 282 281 280 280
275 275 274 274 274 274 271 269 268 267 268 269 269 272 270 263 261 263 263 262 263 262 261 261 262 264 270 272 267 262 261 263 263 263 263 262 262 262 261 261 261 261 260 260 261 261 261 261 261 261 262 263 264 266 267 267 267 268 269 270 271 272 273 273 274 275 275 276 277 278 278 278 278 279 279 280 280 280 280 280 280 280 281 281 281 280 279
275 275 274 274 274 272 268 267 267 267 267 268 269 272 270 263 260 262 263 262 262 262 261 261 261 263 265 266 263 261 261 262 262 262 262 262 261 261 261 260 261 260 260 260 260 260 261 261 260 260 261 262 263 264 264 264 265 265 266 268 269 270 271 272 273 273 274 275 276 276 277 277 278 278 279 279 279 280 280 280 280 279 279 279 279 279 279
275 275 274 274 273 270 266 266 266 265 267 269 271 271 267 261 260 263 263 262 262 261 260 260 260 261 262 261 260 261 261 261 261 261 261 261 261 260 260 260 260 260 259 259 259 260 260 260 260 260 260 260 261 262 262 262 262 263 265 267 268 269 270 271 272 273 273 274 275 275 276 276 277 278 278 279 279 279 280 280 279 279 279 279 278 278 278
275 274 274 274 273 267 263 264 265 265 269 272 269 265 262 259 261 263 262 262 262 260 260 260 259 260 260 260 260 260 261 261 260 260 260 260 260 260 259 259 259 259 259 259 259 259 259 259 259 259 259 259 260 260 260 260 261 263 264 266 267 268 269 270 271 272 272 273 274 274 275 276 276 277 278 278 278 279 279 279 279 279 278 278 278 278 277
274 274 273 274 273 266 261 264 267 266 268 267 263 260 261 261 261 262 261 261 261 260 259 259 259 259 259 259 259 260 260 260 260 260 260 260 259 259 259 258 258 259 258 258 258 259 259 259 259 259 258 258 259 259 259 259 260 262 264 265 266 268 268 269 269 270 271 272 273 274 274 275 276 276 277 277 278 278 278 278 279 278 278 278 278 278 277
273 273 273 271 268 264 261 264 265 264 262 261 259 260 261 261 261 261 260 260 260 259 258 258 258 258 258 258 259 259 259 259 259 259 259 259 259 258 258 258 258 258 258 258 258 258 258 259 258 258 258 258 258 258 258 258 260 262 263 264 265 266 267 268 268 269 270 271 272 273 274 274 275 275 276 276 277 277 277 277 278 278 278 278 278 277 277
270 271 270 266 262 261 261 262 261 260 259 259 259 259 260 260 260 260 259 259 259 258 258 257 257 257 257 258 258 258 258 259 259 258 258 258 258 257 257 257 257 257 257 257 257 258 258 258 258 257 257 257 257 257 257 258 259 261 262 263 265 265 266 267 267 268 269 270 271 272 273 273 274 274 275 275 276 276 276 276 276 277 277 277 277 277 276
269 267 265 262 261 261 260 260 260 259 259 259 259 258 258 259 259 258 258 258 258 257 257 257 256 257 257 257 257 257 258 258 258 257 257 257 257 256 256 256 257 257 257 257 257 257 258 258 257 257 257 257 257 257 257 257 258 260 261 262 264 265 265 266 267 267 268 269 270 271 272 272 273 273 274 274 274 275 275 275 275 275 276 276 276 276 275
269 267 263 261 261 261 260 260 260 259 259 258 258 258 258 258 258 257 257 257 257 257 256 256 256 256 256 256 256 256 257 257 257 257 257 256 256 256 255 256 256 256 256 256 257 257 257 257 257 257 257 257 256 256 256 257 258 259 261 262 263 264 265 265 266 267 267 268 269 270 270 271 271 272 272 273 273 273 273 274 274 274 274 274 274 273 273
267 266 262 260 261 261 260 260 260 259 258 258 257 257 257 257 257 257 256 256 256 256 256 255 255 255 255 255 255 255 256 256 256 256 256 255 255 255 255 255 256 256 256 256 256 257 257 257 256 256 256 256 256 256 256 256 257 259 260 262 263 263 264 264 265 266 267 267 268 268 269 270 270 270 271 271 272 272 272 273 273 273 272 272 272 272 272
265 264 261 260 261 261 260 259 258 258 257 257 257 257 257 256 256 256 255 255 255 255 255 255 255 254 254 255 255 255 255 255 255 255 255 255 254 254 254 255 255 255 255 255 256 256 256 256 256 256 256 256 256 256 256 256 256 258 260 261 262 262 263 264 264 265 265 266 267 267 268 268 269 269 270 270 271 271 271 272 272 272 271 271 270 270 270
266 263 260 259 261 261 260 259 258 257 257 256 256 256 256 256 255 255 254 254 255 254 254 254 254 254 254 254 254 254 254 254 254 254 254 254 254 254 254 255 255 255 255 255 255 256 256 256 255 255 255 255 255 255 255 255 256 257 259 260 261 261 262 263 263 264 264 265 266 266 267 267 268 269 269 270 270 270 270 270 271 271 270 270 269 269 269
263 260 257 257 258 258 258 259 258 257 257 256 256 256 255 255 254 254 254 254 254 254 253 253 254 254 254 254 254 254 254 254 254 254 254 254 254 254 254 255 255 255 254 255 255 255 256 255 255 255 255 255 255 255 255 255 256 256 258 259 260 260 261 262 263 263 264 264 264 265 266 267 267 268 268 268 269 269 269 269 269 269 269 269 269 268 268
259 257 257 257 257 257 257 257 257 256 256 256 255 255 254 254 254 254 254 253 253 253 253 253 253 253 254 254 254 253 253 253 253 253 253 254 254 254 254 254 254 254 254 254 254 255 255 255 254 255 255 255 255 254 255 255 256 256 257 258 259 260 260 261 262 262 263 263 263 264 264 265 266 267 267 267 267 267 267 267 267 267 267 267 267 267 267
258 257 257 256 256 256 256 256 256 256 255 254 254 254 254 254 254 253 253 253 253 253 253 253 253 253 253 253 253 253 253 253 253 253 253 253 253 254 254 254 254 254 254 254 254 255 255 254 254 254 254 254 254 254 254 255 256 256 257 258 259 259 260 260 261 261 261 262 262 262 263 263 264 265 265 265 265 266 266 266 266 266 266 266 266 266 266
257 257 256 255 255 255 256 256 256 255 254 253 253 253 253 253 253 253 253 253 252 252 252 253 253 253 253 253 253 253 253 252 253 253 253 253 253 253 253 253 253 253 253 254 254 255 254 254 254 254 254 254 254 255 255 256 256 257 257 258 258 259 259 260 260 260 260 260 261 261 261 262 262 263 263 263 264 265 265 264 264 265 265 265 265 265 266
256 255 255 255 255 256 255 255 254 254 253 253 253 253 253 253 253 253 253 252 253 253 253 253 253 253 253 252 252 252 252 252 252 252 252 252 253 252 252 253 253 253 253 254 254 255 254 254 254 254 254 254 255 255 256 257 257 257 258 258 258 258 259 259 259 259 259 259 260 260 261 261 261 261 262 262 262 263 263 263 263 263 263 264 264 264 265
254 254 254 254 255 255 254 254 253 253 253 253 253 253 253 253 252 252 252 253 253 253 253 252 252 252 252 252 252 252 252 252 252 252 252 252 252 252 252 252 252 253 253 254 254 254 253 253 253 254 254 255 256 256 256 257 258 258 258 258 258 258 258 258 258 258 259 259 259 260 260 260 260 261 261 261 261 261 262 262 262 262 262 262 263 263 264
254 254 254 254 254 253 253 253 253 252 252 253 253 252 252 252 252 252 252 253 253 252 252 252 252 252 252 252 252 252 252 252 251 251 251 251 252 252 252 252 252 253 254 254 254 254 253 253 253 253 254 255 256 256 257 258 258 257 257 257 257 258 258 258 258 258 259 259 259 259 259 260 260 260 260 260 260 261 261 261 261 261 261 262 263 263 264
254 253 253 253 253 253 252 252 252 252 252 252 252 252 252 252 252 252 252 252 252 252 251 251 251 251 251 251 251 251 251 251 251 251 251 251 252 252 252 252 252 253 253 254 254 253 253 253 253 253 254 255 256 256 257 258 258 258 257 257 257 257 258 258 258 258 258 259 259 259 259 259 260 260 260 260 260 260 260 260 260 260 260 261 262 263 263
253 253 252 252 252 252 252 252 252 252 252 252 252 252 252 252 251 251 252 252 251 251 251 251 250 251 251 251 251 250 250 250 250 251 251 252 252 252 252 252 252 252 252 253 253 253 253 253 253 254 254 255 256 256 257 258 258 258 258 258 258 257 258 258 258 258 258 259 259 259 259 259 259 260 260 259 259 259 259 259 259 259 259 260 260 260 261
253 252 252 252 252 252 252 252 252 252 252 252 252 251 251 251 251 251 251 251 251 250 250 250 250 250 251 250 250 250 250 250 250 251 252 252 252 252 252 252 252 252 252 253 253 253 253 253 254 254 255 255 255 256 257 258 258 258 258 258 258 257 257 258 258 258 258 259 259 259 259 259 259 259 259 259 259 259 259 259 259 259 259 259 259 259 260
253 253 254 253 252 252 252 252 252 252 252 251 251 251 251 251 251 250 250 250 250 249 249 250 250 250 250 249 249 249 249 250 250 251 252 252 251 252 252 252 253 253 253 253 253 253 253 254 254 255 255 255 256 256 256 257 257 257 257 258 258 257 257 257 257 258 258 259 259 259 259 259 259 259 259 259 259 259 259 259 259 259 259 259 259 259 259
253 253 254 253 252 252 252 252 251 251 251 251 251 251 250 250 250 249 249 249 249 249 249 249 250 249 249 249 249 249 249 250 250 251 251 251 251 251 252 253 253 253 254 254 254 253 253 254 255 255 255 255 256 256 256 257 257 257 257 258 257 257 257 257 257 258 258 258 258 258 259 259 259 259 259 259 259 259 259 259 260 260 260 259 259 259 260
253 253 252 252 252 252 252 251 251 250 250 250 250 249 249 249 249 249 249 249 249 249 249 249 249 249 249 249 249 249 249 249 250 250 250 251 251 251 252 253 254 254 254 254 254 253 254 254 255 255 255 255 255 255 256 256 256 257 257 257 257 256 256 256 257 257 258 258 258 258 258 258 258 258 259 259 259 259 259 259 259 259 259 259 259 259 260
253 252 252 252 252 252 251 251 251 250 250 249 249 249 249 249 248 248 248 248 248 248 248 249 249 248 248 249 249 249 249 249 250 250 250 251 251 252 252 253 254 254 254 254 254 254 254 254 254 254 255 255 255 255 255 256 256 256 257 257 257 257 257 257 257 257 257 258 258 258 258 258 258 258 258 258 258 258 259 259 259 259 259 259 259 259 259
252 252 252 252 251 251 251 251 250 250 250 249 249 248 248 248 248 248 248 248 248 248 248 248 248 248 248 249 249 249 249 250 250 250 250 251 251 252 253 253 254 254 254 254 254 254 254 255 254 254 255 255 255 255 255 255 255 256 256 256 256 257 257 257 257 257 257 257 257 258 258 258 258 258 258 258 258 258 258 258 258 258 259 259 259 259 259
252 252 251 251 251 251 250 250 250 249 249 249 249 249 249 248 248 248 248 248 248 248 248 248 248 248 248 248 249 249 250 250 250 250 251 251 251 251 252 253 254 254 254 254 254 254 254 255 255 255 255 255 255 255 255 255 255 256 256 256 256 256 256 256 256 257 257 257 257 257 257 257 257 257 257 257 257 258 258 258 258 258 258 258 258 258 258
251 251 251 251 250 250 250 250 249 249 249 248 249 249 249 249 249 248 248 249 249 249 248 248 248 248 248 248 248 249 250 250 250 250 251 251 251 252 253 254 255 254 254 254 253 254 254 255 255 255 255 255 255 255 255 255 255 255 256 256 256 256 256 256 256 256 256 256 256 257 257 257 257 257 257 257 257 257 257 257 257 258 258 258 258 258 258
251 251 251 250 250 250 250 249 249 250 249 249 249 249 249 249 249 248 249 249 250 249 248 248 248 248 248 248 248 249 251 251 251 251 251 251 252 252 253 254 255 255 254 254 254 254 254 254 254 254 255 255 255 255 255 255 255 255 255 256 256 256 256 256 256 256 256 256 256 256 256 256 257 257 257 257 257 257 257 257 257 257 258 258 258 258 258
250 250 250 250 250 249 249 249 249 250 250 250 250 250 250 250 249 248 249 249 250 249 249 249 248 248 248 248 248 249 250 251 252 252 252 252 252 252 252 253 254 254 254 254 254 254 254 254 254 254 254 255 255 255 255 255 255 255 255 255 255 255 256 256 256 256 256 256 256 256 256 256 256 257 257 257 257 257 257 257 257 257 257 257 258 258 258
251 251 250 250 250 250 250 249 249 250 251 251 251 251 250 250 250 249 249 250 250 250 250 250 249 248 248 248 248 249 250 251 252 251 251 251 252 251 251 252 254 254 253 254 254 254 254 254 254 254 254 254 254 255 255 255 255 255 255 255 255 255 255 255 255 256 255 255 256 256 256 256 256 256 256 256 257 257 257 257 257 257 257 257 257 257 258
252 251 250 250 250 250 250 250 250 250 251 252 252 251 251 251 251 251 251 251 251 251 251 251 250 250 250 250 249 250 251 251 251 250 251 252 253 252 252 253 253 253 252 253 254 254 254 254 254 254 254 254 254 255 255 255 255 255 255 255 255 255 255 255 255 255 255 255 256 256 256 256 256 256 256 256 256 256 257 257 257 257 257 257 257 257 257
252 251 250 251 251 250 250 250 250 250 250 251 252 252 252 252 252 252 252 252 252 251 251 251 252 252 252 251 250 250 251 251 250 250 250 251 252 253 253 253 253 253 253 253 253 253 254 254 254 254 254 254 254 254 255 255 255 255 255 255 255 255 255 255 255 255 255 255 256 256 256 256 256 256 256 256 256 256 256 256 256 256 256 257 257 257 257
252 252 251 251 251 251 251 251 250 250 250 251 252 253 253 253 253 253 252 252 252 252 252 252 252 252 252 252 251 251 251 252 251 250 250 249 251 252 253 253 253 252 252 253 253 253 254 254 254 254 254 254 254 254 254 254 255 255 255 255 255 255 255 255 255 255 255 255 255 256 256 256 256 256 256 256 256 256 256 256 256 256 256 256 257 257 257
253 253 252 252 252 252 252 251 251 251 251 251 252 254 255 254 253 253 253 252 253 253 253 253 253 253 253 252 252 252 253 253 253 252 252 251 251 252 252 252 252 252 252 253 253 253 254 254 254 254 254 254 254 254 254 254 254 255 255 255 255 255 255 255 255 255 255 255 255 255 255 255 256 256 256 256 256 256 256 256 256 256 256 256 256 256 257
253 253 253 253 253 253 252 252 251 251 251 250 252 254 255 254 253 254 254 253 253 254 254 254 254 254 253 253 253 253 253 253 254 254 254 253 253 253 253 252 253 253 253 253 254 254 254 254 254 254 254 254 254 254 254 254 254 254 255 255 255 255 255 255 255 255 255 255 255 255 255 255 255 255 255 255 255 256 256 256 256 256 256 256 256 256 256
254 253 254 254 253 253 253 253 252 252 253 253 253 255 255 255 254 254 254 254 254 254 254 255 255 255 254 254 254 254 253 253 253 253 254 253 253 253 253 253 253 253 253 254 254 254 254 254 254 254 254 254 254 254 254 255 255 255 255 255 255 255 255 255 255 255 255 255 255 255 255 255 255 255 255 255 255 256 255 256 256 256 256 256 256 256 256
254 253 253 253 253 254 254 253 252 253 254 255 255 255 255 254 255 255 255 255 255 255 255 255 255 255 255 255 255 254 254 253 253 253 254 253 253 253 253 254 254 254 254 254 255 255 255 254 254 254 254 254 254 255 255 255 255 255 255 255 255 255 255 255 255 255 255 255 255 255 255 255 255 255 255 255 255 255 256 256 256 256 256 256 256 256 256
254 253 253 254 254 254 254 253 253 254 255 254 254 254 253 253 254 255 256 255 255 255 255 256 256 256 255 255 255 255 254 254 254 254 254 254 254 254 254 254 255 255 254 255 255 255 255 255 255 254 255 255 255 255 255 255 255 255 255 255 255 255 255 255 255 255 255 255 255 255 255 255 255 255 255 255 255 255 255 255 256 256 256 256 256 256 256
254 253 253 254 254 254 253 253 254 254 255 255 254 254 254 253 254 255 256 255 254 254 255 255 256 256 255 255 255 255 255 254 254 254 254 254 255 255 255 255 255 255 255 255 255 255 255 255 255 255 255 255 255 255 255 255 255 255 255 255 255 255 255 255 255 255 255 255 255 255 255 255 255 255 255 255 255 255 255 255 255 255 255 255 255 255 256
254 254 254 254 254 254 255 255 256 256 256 256 256 256 255 255 255 255 256 256 255 254 254 254 255 255 255 255 255 255 255 254 254 254 254 254 255 255 255 255 255 255 255 255 255 255 255 255 255 255 255 255 255 255 255 255 255 255 255 255 255 255 255 255 255 255 255 255 255 255 255 255 255 255 255 255 255 255 255 255 255 255 255 255 255 255 255
Wind_Speed
9 9 9 9 8 8 8 9 12 14 15 15 13 11 10 9 9 9 11 14 13 13 14 11 7 7 7 8 8 8 9 10 11 12 13 14 14 15 15 16 17 17 16 18 24 26 29 31 33 37 38 28 18 16 13 11 9 9 10 14 17 19 20 20 20 20 20 21 22 23 25 26 26 27 27 27 27 27 27 27 27 27 27 27 27 27 26
9 10 10 10 9 9 9 10 12 13 15 17 17 15 13 12 12 12 13 16 16 14 11 6 7 8 7 7 8 9 11 11 12 13 13 14 14 15 16 16 16 17 17 20 25 27 28 32 33 33 36 32 21 17 15 12 10 10 12 15 18 20 21 21 21 21 21 22 22 23 25 26 26 27 27 28 28 28 28 28 27 27 27 27 27 26 26
7 9 9 10 10 11 11 11 12 13 14 15 16 15 14 13 13 14 14 16 14 7 5 7 9 9 8 9 10 10 11 11 12 12 12 13 14 15 15 16 16 16 19 22 25 27 28 32 33 31 36 36 26 17 16 13 11 10 13 16 18 20 21 21 22 22 23 23 23 24 24 25 26 27 27 28 28 28 28 28 27 27 26 26 25 25 25
7 7 7 8 9 10 10 10 11 13 12 12 11 11 12 12 13 14 14 11 6 4 7 7 8 10 10 10 10 10 9 11 11 11 11 12 13 14 15 15 16 16 18 21 24 27 28 30 32 32 36 38 29 20 17 13 11 11 14 17 18 19 21 21 23 23 24 25 25 24 24 24 25 26 27 28 28 27 27 27 26 27 26 26 25 24 25
7 5 3 4 5 7 7 6 8 12 12 12 13 12 12 11 9 10 8 3 3 7 8 8 8 10 10 9 9 8 9 10 11 11 11 12 12 13 14 15 15 16 18 21 23 26 27 28 31 32 34 36 31 23 17 12 10 12 16 19 20 20 21 22 23 23 24 25 25 24 24 24 25 26 26 27 26 26 26 26 26 27 26 25 24 24 25
6 5 3 4 6 7 6 3 5 9 9 9 10 6 3 4 4 3 2 4 7 9 9 9 9 9 10 9 8 8 9 9 9 10 11 12 12 13 13 14 16 18 20 22 23 25 27 27 30 33 34 36 33 25 17 13 11 13 16 19 21 22 22 22 22 23 24 24 24 23 23 24 25 25 26 25 25 25 25 26 27 26 25 25 23 22 23
4 4 2 5 8 6 4 2 2 4 4 5 5 3 8 9 8 7 6 7 9 9 8 8 8 8 11 7 7 9 10 9 10 11 11 12 14 14 14 14 17 21 23 24 25 26 27 27 29 31 34 38 36 25 17 15 13 14 17 20 21 21 21 22 21 21 22 23 23 23 23 24 25 25 24 24 23 23 24 25 26 25 24 23 21 21 23
3 2 3 7 6 3 3 2 3 5 5 6 5 1 5 8 8 7 6 7 8 9 8 9 9 9 11 5 6 10 11 10 11 11 11 12 13 14 15 17 19 22 24 25 25 26 26 26 27 29 32 36 35 24 17 16 14 15 19 21 22 21 21 20 20 19 20 21 22 22 22 23 24 24 23 23 22 23 24 24 25 25 24 22 21 21 22
3 3 4 6 6 5 5 1 4 5 3 4 3 1 1 5 7 7 6 7 8 9 9 10 11 11 9 4 4 9 12 11 12 12 12 13 14 15 18 19 20 21 23 24 24 24 24 25 26 28 31 34 31 23 18 17 15 16 21 22 21 20 20 18 17 17 17 19 20 21 22 23 23 23 23 22 21 22 24 24 24 24 24 22 20 20 20
3 3 4 4 6 5 1 2 4 4 3 3 3 1 1 3 6 8 7 7 9 9 9 12 13 10 6 4 2 8 13 13 14 14 14 15 16 16 18 20 20 21 22 23 23 23 23 23 26 28 30 30 27 21 18 18 17 17 21 22 20 18 17 16 15 15 15 16 18 20 21 21 22 22 22 22 21 22 24 24 24 24 24 23 21 18 17
2 3 4 4 4 2 2 3 3 5 5 4 2 1 0 2 6 7 6 7 8 7 8 11 10 6 3 2 1 9 14 16 16 16 15 17 18 17 17 19 20 21 22 23 23 23 22 23 27 29 28 27 24 20 19 19 18 19 21 21 19 16 14 13 12 12 13 15 17 19 20 20 21 22 22 22 21 23 24 24 24 23 24 25 23 20 17
4 5 5 3 2 0 2 3 5 6 7 5 1 1 1 2 4 6 5 6 7 6 7 7 6 4 3 4 6 12 16 17 17 17 17 18 19 18 18 19 19 20 21 22 22 23 23 23 26 27 26 25 23 20 18 18 19 20 21 20 17 14 12 11 11 11 12 13 15 17 18 18 19 21 21 22 22 23 24 24 24 23 23 24 23 20 18
5 6 5 3 1 2 1 4 6 7 7 2 1 2 1 1 5 5 5 6 6 5 5 5 3 3 5 8 11 15 16 15 16 17 17 18 18 18 19 20 20 19 20 20 21 22 22 22 24 24 24 23 22 20 18 19 20 20 19 18 16 13 11 11 10 10 11 13 14 15 15 16 18 20 21 21 22 23 24 23 23 23 22 22 21 19 17
4 3 2 3 2 1 1 5 6 5 3 1 1 2 3 3 4 5 5 5 5 5 5 5 5 7 9 11 12 14 14 14 15 17 18 18 18 18 18 19 20 19 19 20 21 21 21 21 22 21 21 21 20 20 19 20 21 19 16 16 15 12 11 10 10 10 11 12 13 14 15 16 18 19 20 21 21 22 23 23 23 22 21 21 21 20 18
1 1 1 3 3 1 1 5 4 2 1 1 1 2 1 2 3 5 4 5 5 5 6 6 7 9 11 12 12 12 13 14 16 17 18 18 18 19 19 20 21 20 20 20 21 21 21 21 20 20 19 19 19 19 20 21 21 17 15 15 13 10 9 10 10 10 11 12 13 14 15 16 18 18 19 20 20 21 22 23 22 21 20 20 21 20 19
0 2 2 2 2 1 2 3 1 2 2 2 1 1 2 2 4 4 3 5 6 6 7 8 9 10 11 11 12 12 13 14 16 17 17 18 18 18 19 20 21 21 20 21 21 21 20 19 19 19 18 18 19 20 22 23 21 17 15 14 12 9 9 9 10 10 12 13 14 15 16 17 18 19 18 19 18 18 20 21 22 21 19 19 19 19 19
1 2 1 1 3 3 3 2 2 3 3 3 3 2 3 3 3 3 4 6 7 7 8 9 10 9 10 11 12 12 13 14 16 17 17 18 18 19 19 20 20 19 19 20 21 20 20 19 19 19 18 18 20 22 24 24 21 17 15 13 11 10 9 10 10 11 13 15 16 17 17 18 19 18 18 19 19 18 18 19 20 20 18 18 18 18 17
1 1 2 3 4 3 3 2 3 4 3 3 3 3 3 3 4 4 5 6 8 8 8 8 9 9 10 11 12 12 13 15 16 16 17 17 18 19 19 20 20 19 19 19 19 20 20 19 19 20 19 18 20 22 23 23 20 16 14 13 11 9 9 10 11 12 14 16 16 17 17 18 19 18 18 19 19 19 18 18 18 18 18 17 17 17 16
2 1 1 3 3 3 4 4 4 4 4 3 3 2 3 4 4 5 6 7 8 9 8 8 9 11 11 11 12 11 11 14 15 16 16 17 18 19 19 20 20 19 18 18 18 19 20 20 20 20 19 18 20 22 22 21 19 16 13 12 11 10 10 10 12 14 16 17 17 17 18 18 19 19 19 19 20 19 18 17 16 16 16 16 16 16 15
1 1 2 1 1 2 2 3 2 3 3 3 3 3 4 5 5 6 7 8 8 8 8 9 11 11 11 11 11 10 11 14 16 16 16 17 18 19 19 19 19 18 17 18 19 19 19 20 21 20 19 18 20 21 21 20 18 16 13 12 11 11 12 12 13 16 17 17 17 18 19 20 20 19 19 21 22 21 17 15 14 14 15 15 15 14 13
2 1 2 2 1 2 4 4 3 3 3 3 4 5 5 5 4 5 8 10 9 9 10 11 11 10 10 12 12 12 12 15 16 16 16 17 18 19 19 19 18 17 17 18 19 19 19 19 20 20 19 18 19 20 20 19 18 16 14 12 11 12 14 15 15 16 16 17 16 16 17 19 20 19 19 20 22 22 20 17 15 14 14 15 13 13 13
3 2 0 2 1 1 1 2 3 4 4 5 6 6 4 3 4 5 7 10 11 11 12 13 12 10 10 12 14 13 13 15 17 17 17 17 17 18 18 18 16 16 17 18 18 18 18 19 20 20 18 17 18 20 19 18 17 16 14 13 12 13 16 17 16 16 16 16 15 14 14 16 18 19 19 18 19 20 20 19 18 17 16 15 12 10 12
1 1 1 1 1 2 4 3 3 4 5 5 6 6 4 4 6 8 8 8 8 10 12 13 13 12 12 14 15 14 15 17 18 18 17 16 17 17 17 16 16 17 17 18 17 17 18 19 19 19 17 16 18 19 19 17 15 15 15 14 14 16 18 17 15 16 16 15 14 14 13 13 14 15 17 17 17 16 15 15 15 16 16 16 14 12 10
0 2 2 1 2 4 5 5 6 6 5 5 4 4 5 7 9 10 10 9 8 9 12 13 13 13 14 15 14 14 17 18 19 19 19 17 16 16 16 15 16 17 17 17 17 17 17 18 19 18 16 16 18 19 18 17 15 15 16 15 15 17 18 16 15 15 15 14 14 14 13 13 13 12 13 14 14 13 12 12 13 13 12 12 13 13 12
1 2 2 3 3 4 5 7 7 5 5 6 5 5 8 10 11 11 11 11 11 12 12 13 13 13 14 14 14 14 16 18 19 19 19 18 16 16 15 15 16 16 17 17 16 16 16 17 18 17 15 16 18 19 18 17 16 15 16 17 16 17 18 17 15 15 15 15 15 14 14 13 13 12 11 11 11 10 11 11 11 11 12 11 10 10 10
3 4 4 4 5 5 4 5 4 3 7 9 8 9 10 12 12 12 12 13 14 14 14 14 14 13 12 13 14 15 16 17 17 18 17 16 16 16 16 16 16 17 17 17 15 14 15 16 16 16 16 17 19 19 18 17 17 17 17 17 17 16 17 17 16 15 15 14 14 14 14 13 13 12 11 10 9 9 9 8 8 10 11 11 10 9 9
4 4 3 3 4 3 0 1 3 7 11 12 10 10 12 12 12 13 13 14 14 14 13 13 13 12 12 12 13 14 15 15 15 16 15 15 15 16 16 17 17 17 17 14 12 13 15 16 16 16 16 18 20 19 18 17 18 18 18 18 17 16 16 17 17 16 15 14 14 14 14 13 12 11 10 10 9 9 9 8 9 11 12 11 11 11 10
3 2 2 2 3 3 3 6 9 11 12 12 11 11 11 11 11 11 11 12 11 11 11 11 11 11 12 12 12 13 13 13 14 14 15 15 16 17 16 17 17 18 15 11 11 13 15 15 15 16 17 18 19 19 18 17 18 19 19 19 19 18 17 17 17 15 15 15 14 14 12 11 11 10 10 10 10 10 10 10 10 11 11 11 10 10 10
2 3 4 6 7 7 8 9 10 10 10 11 10 10 9 9 8 8 8 9 9 9 10 10 10 11 11 12 11 12 12 13 14 15 16 17 17 16 15 16 17 16 12 9 11 15 16 15 15 15 17 18 19 18 17 16 17 18 18 18 19 18 17 16 15 13 13 13 13 12 11 10 10 10 10 10 10 10 10 11 11 11 11 10 9 9 11
2 2 4 7 8 8 7 7 6 6 8 9 8 8 8 8 6 6 7 9 9 9 10 10 11 12 12 11 11 11 12 14 15 16 17 17 16 14 14 15 15 13 11 11 13 15 15 15 15 15 16 17 18 17 16 15 16 16 15 15 16 16 15 14 13 12 11 11 11 11 11 11 10 10 10 10 10 10 10 11 11 11 11 12 12 13 13
3 4 5 7 7 6 6 6 5 5 7 8 7 6 6 6 6 6 7 8 8 9 11 12 12 12 11 12 13 14 14 15 16 17 16 14 13 13 14 14 13 12 12 13 13 13 14 15 15 15 15 16 16 16 15 15 15 16 15 14 14 14 13 12 12 11 11 10 10 10 11 11 10 10 9 9 10 10 10 10 11 11 12 12 13 14 13
4 6 6 5 5 5 5 5 4 4 5 5 5 5 5 6 6 7 8 8 9 11 12 12 12 12 13 14 15 16 16 16 17 15 13 11 12 13 14 13 12 12 13 13 11 11 13 15 15 14 14 14 15 15 15 15 15 16 14 12 12 12 12 11 11 10 9 10 10 10 10 10 9 9 9 10 10 9 10 10 10 11 11 12 12 13 12
3 5 5 3 3 4 5 4 4 4 5 6 7 8 8 8 8 9 10 11 12 12 12 12 12 13 15 16 16 16 16 16 14 12 11 13 14 14 14 13 12 13 13 11 9 9 12 14 14 14 13 13 14 15 15 14 14 14 13 11 11 11 11 10 9 9 8 9 10 10 10 9 9 9 9 9 9 9 9 9 10 10 11 11 11 11 11
6 5 5 5 4 5 6 5 4 4 6 7 9 10 10 10 11 12 12 13 13 13 13 13 14 15 16 17 16 16 14 12 11 11 14 16 16 15 15 13 12 12 11 7 6 9 12 13 13 13 13 12 13 14 14 13 13 12 11 10 10 10 10 10 9 9 9 9 9 9 9 8 8 9 8 8 8 8 9 9 9 9 10 10 10 10 10
8 9 9 10 9 10 10 9 8 7 7 7 9 11 12 12 13 13 14 14 14 14 15 15 15 16 16 16 16 15 13 12 12 13 15 16 16 16 16 14 12 12 9 5 5 10 13 11 11 12 12 11 11 12 12 12 11 10 9 9 9 9 9 9 9 9 9 9 8 8 8 8 8 8 8 8 8 8 8 9 9 9 9 10 9 9 9
9 9 10 10 11 11 11 12 12 12 11 11 12 14 15 15 14 14 14 15 15 16 16 15 16 16 16 15 15 15 15 14 14 14 15 15 16 16 16 14 12 11 8 5 6 11 12 10 10 11 10 9 10 10 10 10 10 9 8 9 9 8 8 8 8 8 9 9 8 8 8 8 8 8 8 8 8 8 8 8 8 8 9 9 9 9 9
9 9 10 11 11 11 12 13 13 13 14 14 15 16 16 16 16 16 15 15 15 15 14 14 15 16 16 16 17 16 15 14 13 13 15 16 15 15 15 14 11 9 7 7 9 12 11 10 9 9 9 8 9 9 9 9 10 9 8 8 8 7 8 8 8 8 8 8 8 8 8 7 7 7 7 7 7 7 7 7 7 7 7 7 8 8 8
9 9 10 12 11 12 13 13 13 13 14 15 16 16 16 16 16 16 16 16 15 14 13 13 13 14 16 16 17 16 14 13 13 14 15 15 14 14 15 14 12 9 8 8 11 12 11 10 10 10 9 9 9 9 9 9 9 9 8 8 8 7 8 8 8 7 8 8 7 7 7 7 6 6 6 6 6 6 6 6 6 6 6 6 7 7 7
9 9 10 10 11 12 13 13 13 13 12 14 16 17 16 15 15 15 16 17 15 13 13 13 13 14 15 15 16 17 16 14 14 15 15 14 13 14 14 13 9 7 6 7 9 12 12 11 11 10 9 9 9 9 9 9 9 9 8 8 8 8 7 7 7 7 7 7 7 6 6 6 6 6 6 6 6 6 6 6 6 6 7 7 7 7 8
9 10 10 10 11 12 13 13 14 13 12 12 15 16 16 15 15 15 16 17 16 14 13 13 14 14 15 15 16 18 18 16 15 16 15 15 14 13 12 10 7 4 4 6 8 11 12 11 10 10 9 9 9 9 9 8 8 8 8 8 7 7 7 7 7 7 7 7 7 7 7 7 7 7 7 7 7 7 7 7 8 8 8 8 8 8 9
11 11 11 11 11 12 12 13 14 15 14 13 13 14 14 14 14 15 16 17 17 16 15 13 13 14 15 16 17 18 18 17 16 14 13 13 13 13 12 10 8 6 7 8 9 11 13 13 11 10 10 9 9 9 9 8 8 8 8 8 8 8 8 8 8 8 8 8 8 8 8 9 9 9 9 9 9 9 9 9 9 9 9 9 10 10 10
11 11 10 11 12 12 12 12 13 15 15 14 13 12 12 12 12 14 16 17 17 16 15 13 13 14 15 16 17 18 18 16 14 11 10 10 12 13 13 11 8 7 9 11 12 12 13 14 13 12 12 11 11 11 10 10 10 9 9 9 9 9 9 9 9 10 10 10 10 10 10 10 10 10 11 11 11 11 11 11 11 10 10 11 11 11 11
11 10 10 12 12 12 12 12 13 14 15 14 12 11 11 12 13 15 16 15 14 14 14 14 14 14 15 15 16 17 17 15 12 11 12 13 12 11 12 11 9 10 13 15 13 12 13 15 15 14 13 13 13 13 12 11 11 11 11 11 10 10 10 11 11 11 11 11 11 11 11 11 12 12 12 12 12 12 12 12 12 12 12 12 12 12 12
10 10 11 12 12 12 12 12 12 13 14 14 13 12 13 13 13 13 13 13 12 13 13 14 14 14 14 15 15 16 17 16 15 14 16 17 13 8 6 6 8 10 13 14 13 13 15 16 16 15 14 14 14 14 13 13 12 12 12 12 12 12 12 12 12 12 12 12 12 12 13 13 13 13 14 14 14 14 14 14 14 14 13 13 13 13 13
10 10 10 11 12 12 12 12 12 12 14 15 16 15 13 10 9 9 9 11 12 13 13 13 14 14 14 14 15 15 15 15 14 13 14 14 11 7 6 7 9 10 12 14 14 16 17 18 17 15 15 14 14 15 14 14 13 13 13 13 13 13 14 14 14 14 14 14 14 14 14 14 14 15 15 15 15 15 15 15 15 15 15 15 15 15 15
10 10 10 10 11 11 11 11 12 13 14 16 16 14 10 7 8 9 9 11 13 13 13 13 14 14 13 14 15 14 14 13 11 9 9 9 8 7 8 9 11 12 14 15 16 17 18 17 16 15 14 15 15 15 15 15 14 14 14 14 14 15 15 15 15 15 15 15 15 16 16 16 16 16 16 17 17 17 17 17 17 16 16 16 16 17 17
10 10 10 11 11 11 11 11 13 14 14 14 15 14 11 9 10 11 11 12 13 13 12 12 12 12 11 12 12 12 12 12 11 9 6 6 7 9 10 12 13 14 15 16 16 16 16 15 14 14 14 14 15 15 15 15 15 15 15 15 15 15 15 15 15 15 16 16 16 16 17 17 17 17 17 18 18 18 18 18 18 18 18 18 18 18 18
11 12 12 11 11 12 12 13 14 15 15 15 15 14 13 12 12 13 13 12 12 11 11 11 10 9 9 10 10 9 9 10 9 8 7 9 11 13 14 15 15 15 16 16 15 15 14 13 13 13 13 14 15 15 15 15 15 15 15 15 15 15 15 15 15 15 16 16 16 17 17 17 18 18 18 18 18 18 18 18 19 19 19 19 20 20 20
12 13 13 13 13 14 14 13 14 16 16 15 14 14 13 13 14 14 13 11 12 12 12 11 10 8 7 7 8 8 8 9 9 9 11 13 14 15 16 16 15 14 15 15 15 14 14 13 13 13 13 13 14 14 14 14 14 14 14 15 15 15 15 15 15 15 16 16 16 17 17 18 18 18 18 18 19 18 18 19 19 19 19 20 20 21 21
12 13 14 15 15 14 13 13 15 16 16 15 15 15 14 14 15 16 14 12 13 14 14 12 12 10 8 7 8 9 9 9 10 12 13 14 14 15 15 15 15 14 14 15 15 14 14 13 13 13 13 13 14 14 14 14 14 14 15 15 15 15 15 15 15 15 15 16 16 16 17 17 17 18 18 18 19 19 19 19 19 19 20 20 21 21 21
13 14 15 15 15 15 15 15 17 18 18 18 17 17 16 16 17 18 17 15 14 15 14 14 14 12 10 10 11 11 10 10 12 13 14 14 15 15 15 16 16 16 16 16 15 15 14 14 13 13 13 13 14 14 14 14 14 15 15 15 15 15 15 15 15 15 16 16 17 17 17 18 18 18 19 19 19 19 19 19 19 20 20 20 21 21 21
14 15 16 16 16 16 17 17 17 17 17 16 15 15 15 15 16 17 17 16 15 14 14 15 15 15 14 13 13 13 12 13 14 15 15 15 16 16 16 17 17 17 17 17 17 16 16 15 14 14 13 13 13 14 14 14 15 15 15 14 15 15 15 15 15 16 16 16 17 18 18 18 19 19 20 20 19 20 20 20 20 20 21 21 21 22 22
Wind_Direction
265 270 274 277 276 274 274 276 280 284 286 284 274 262 255 256 261 270 284 290 287 290 301 319 10 28 30 40 40 38 33 21 15 11 7 7 3 1 2 359 358 358 354 350 346 344 344 342 339 337 335 339 353 3 9 23 43 73 98 109 110 108 105 102 102 107 112 114 117 120 121 121 121 121 122 123 123 123 122 119 118 118 118 117 115 114 113
264 263 265 266 264 266 262 256 258 263 269 275 277 276 272 262 260 266 274 276 275 281 294 338 31 24 27 36 31 35 32 21 18 14 8 6 0 357 358 356 355 354 351 348 346 345 346 343 339 335 331 333 345 359 7 21 40 67 93 99 99 100 98 98 101 105 107 108 110 112 113 114 116 118 119 120 120 119 117 116 117 116 116 116 115 114 113
266 257 260 262 259 261 260 255 254 254 256 260 265 273 278 276 272 269 266 265 267 289 360 39 40 26 27 27 19 23 24 18 19 15 9 6 358 354 354 353 354 352 348 347 346 345 345 341 337 333 329 329 336 354 6 17 33 60 87 90 88 91 92 96 101 102 102 104 104 104 106 108 112 114 116 117 116 115 114 114 115 115 114 112 112 112 111
263 259 260 264 269 273 270 263 262 262 262 261 262 266 269 271 276 279 277 273 276 6 24 28 31 28 29 27 19 15 13 12 15 13 8 5 357 351 351 351 351 351 347 346 344 342 342 339 335 332 329 327 332 348 1 11 33 61 83 85 82 85 87 92 97 99 99 100 99 98 101 104 107 110 112 112 112 112 112 112 113 112 110 109 108 109 107
267 270 280 299 302 283 267 259 257 260 261 263 265 265 267 274 282 283 282 303 5 9 11 10 11 13 14 19 23 17 10 8 9 7 4 1 356 351 348 349 350 349 345 342 340 339 338 337 333 330 327 326 329 340 356 11 42 64 78 84 82 83 84 86 90 93 97 98 95 96 99 102 104 106 107 107 108 109 110 110 109 107 105 105 105 105 104
271 279 315 315 281 262 262 263 258 262 267 273 274 275 315 352 2 348 357 39 21 9 13 6 355 351 349 2 33 33 19 10 3 1 0 356 353 350 347 347 348 346 343 340 338 338 337 336 334 330 329 331 332 340 358 19 45 62 71 78 79 80 82 83 86 90 94 95 94 95 99 101 102 102 101 101 103 107 110 110 108 105 104 104 104 104 103
265 283 308 265 253 255 270 259 276 296 323 349 337 33 60 38 22 18 16 19 13 8 5 353 345 333 324 340 47 44 26 19 6 358 356 354 353 349 345 346 346 344 343 339 337 338 337 336 336 331 332 337 338 340 358 16 36 58 66 69 69 71 76 80 84 88 91 95 96 98 101 102 101 99 99 100 102 105 108 108 107 106 106 105 103 101 100
258 259 238 246 261 313 291 255 24 5 12 24 4 29 61 30 21 22 5 356 1 358 348 343 337 320 309 313 70 47 25 20 10 358 352 351 350 345 342 343 342 341 341 337 335 335 334 335 337 334 334 339 338 338 355 11 25 50 64 65 60 58 62 68 77 84 91 97 101 102 105 106 103 100 99 99 102 106 106 106 106 106 105 103 101 99 98
233 242 244 256 280 295 273 259 43 22 11 21 358 276 68 26 22 19 358 350 354 349 346 341 328 316 302 255 110 43 19 12 5 355 348 346 344 341 340 339 337 338 338 334 331 331 333 336 338 338 339 341 337 338 355 9 17 38 54 57 54 52 51 53 64 77 88 98 103 107 110 108 105 104 103 103 106 109 108 106 106 106 106 105 102 100 99
220 247 262 265 270 271 237 88 55 32 3 327 312 291 102 32 15 11 4 356 350 346 348 342 328 320 301 222 142 28 7 358 355 348 343 344 342 339 339 337 335 337 336 333 332 332 333 338 341 344 346 343 337 338 354 3 8 25 40 44 44 46 46 45 53 68 84 97 104 108 109 109 108 109 108 109 112 112 111 108 107 110 111 109 106 102 97
244 252 263 260 258 259 83 55 16 12 346 312 306 301 252 4 355 355 2 356 348 351 350 341 336 333 307 236 49 9 350 343 344 340 337 341 339 337 338 336 335 336 334 332 333 335 337 342 345 348 352 347 338 340 352 358 2 14 25 29 30 35 43 48 53 64 79 93 101 105 107 108 111 113 112 113 115 115 113 110 109 112 113 111 107 103 97
243 249 261 265 258 169 62 11 351 340 322 319 341 255 261 343 327 332 356 350 342 352 349 340 345 342 307 297 327 336 330 328 333 334 334 337 336 335 337 335 334 336 335 333 336 338 340 344 345 348 356 353 341 339 350 358 1 6 12 17 20 28 44 57 63 68 79 88 95 101 106 110 114 117 116 116 117 116 115 114 113 112 113 112 111 109 105
254 257 259 260 236 125 70 332 324 317 310 316 141 230 227 276 295 316 356 346 338 356 351 333 325 314 305 304 309 315 318 321 328 330 330 332 333 332 334 334 335 336 336 335 336 336 337 343 344 347 356 356 343 338 349 359 359 0 7 14 18 25 41 57 70 78 83 89 94 98 105 112 117 118 118 118 119 119 118 118 116 115 114 112 109 107 105
261 258 257 283 287 119 36 306 304 307 305 181 175 239 205 215 280 327 355 343 344 357 338 315 300 299 304 305 304 309 317 321 324 326 328 331 331 332 334 335 336 337 336 335 336 336 338 343 345 345 353 356 346 339 348 356 357 359 8 15 18 25 39 52 68 82 89 95 99 102 107 113 115 116 116 117 120 122 122 120 118 117 116 113 108 104 99
266 215 227 283 280 176 316 307 306 321 6 153 205 279 216 215 321 343 340 334 347 347 323 310 304 302 303 304 305 311 317 319 320 323 328 330 329 333 336 336 336 337 336 334 335 335 337 342 345 346 350 354 349 343 346 354 358 2 10 15 19 27 42 52 63 78 91 98 101 104 108 111 111 112 113 114 116 119 121 120 118 117 117 116 113 108 103
93 228 242 243 209 136 360 327 341 70 62 78 71 339 334 342 348 351 331 323 334 335 320 311 307 306 305 306 311 315 315 317 320 323 326 328 329 333 334 333 334 336 334 332 332 333 336 341 345 348 349 352 352 348 348 355 2 7 11 17 23 30 44 57 63 75 87 94 99 101 104 107 107 106 107 109 111 113 116 116 114 114 117 118 115 111 107
195 223 222 153 144 108 58 42 110 110 90 69 47 1 323 319 341 355 334 317 319 322 316 310 307 306 305 308 312 314 313 315 320 323 324 326 328 330 331 331 332 333 331 329 328 330 336 342 345 348 351 354 353 351 352 357 3 6 8 16 25 33 47 58 64 74 83 89 94 96 96 99 100 99 101 103 103 104 107 108 108 109 112 114 113 109 105
319 42 82 98 120 125 106 95 108 111 102 73 37 4 327 320 330 333 319 309 312 315 314 310 304 302 306 309 309 310 311 314 318 321 323 324 327 329 329 329 329 329 328 326 326 330 337 343 346 348 352 355 355 353 354 359 3 4 6 12 22 35 50 55 61 73 80 82 86 90 91 92 92 92 97 99 97 97 96 96 99 103 104 105 104 102 99
332 343 105 97 118 153 148 137 132 120 96 63 30 348 317 314 315 312 309 307 308 309 310 308 303 302 306 308 307 308 310 313 317 320 321 324 326 327 325 325 326 328 327 326 329 333 338 343 346 347 350 354 356 356 358 0 3 6 8 12 20 35 50 55 58 67 72 73 76 80 85 87 86 86 90 91 90 89 89 90 92 95 96 97 96 96 95
216 194 129 97 194 178 121 111 127 116 89 51 9 326 303 300 301 308 312 311 308 307 307 305 303 303 304 304 305 308 310 312 315 318 320 323 323 322 321 322 324 326 326 327 331 336 340 342 342 344 347 350 354 358 360 2 5 9 14 20 26 37 50 56 56 60 64 67 69 72 76 78 79 79 81 82 81 78 78 85 93 94 92 91 89 91 94
243 215 63 18 255 161 102 80 69 53 28 357 336 317 301 298 308 317 315 308 301 298 302 305 302 300 300 302 304 306 307 309 311 313 317 320 318 317 319 320 323 326 327 328 332 336 339 340 340 341 345 347 352 358 359 2 8 13 20 28 31 37 47 52 52 54 58 63 68 71 73 74 76 77 78 80 81 80 76 77 84 90 91 92 94 95 92
265 234 15 346 328 162 142 89 68 39 1 336 319 309 308 323 331 324 311 303 299 296 298 303 302 297 297 301 303 304 305 305 308 310 313 315 314 315 317 319 322 326 327 330 334 336 338 339 338 339 341 345 352 358 0 5 11 16 23 31 32 37 44 46 46 50 54 57 64 71 74 76 79 81 80 77 80 83 83 80 78 78 80 84 89 94 91
295 127 150 321 342 269 281 323 17 3 337 322 310 312 329 332 320 314 307 301 302 300 299 301 301 296 297 303 306 305 303 304 306 310 312 314 314 316 319 322 325 328 330 332 335 336 337 338 338 337 340 343 350 358 3 8 15 21 28 33 34 38 42 42 41 46 50 50 56 65 73 77 82 86 87 82 77 80 86 85 79 75 76 77 76 73 76
350 78 73 334 288 266 285 317 325 320 326 334 326 324 326 313 305 305 301 296 297 300 300 302 301 298 300 305 307 305 304 306 310 311 313 316 317 318 321 326 328 329 330 332 333 334 334 336 337 338 340 342 349 358 5 11 20 28 34 37 36 37 40 41 41 44 47 48 51 58 65 71 76 82 89 88 80 75 76 76 73 73 75 78 77 72 67
303 360 3 335 295 275 287 294 287 297 353 1 339 316 311 307 304 303 300 297 297 296 296 298 301 301 302 304 305 304 304 306 310 313 315 319 321 322 325 329 330 329 328 327 327 329 331 334 338 341 341 343 350 360 7 14 25 34 40 42 38 33 35 40 39 39 42 45 47 50 53 57 63 70 77 80 80 80 80 75 71 70 71 74 76 74 69
330 336 342 328 291 268 270 273 264 317 354 344 322 307 306 305 303 303 301 297 295 292 290 294 300 304 304 303 303 304 304 305 310 314 316 319 321 324 326 326 326 326 324 322 322 326 331 338 344 346 345 346 354 3 9 18 29 36 42 46 43 34 35 41 40 36 39 44 46 49 50 51 55 60 63 68 77 89 92 80 64 60 64 68 70 67 64
335 338 342 324 289 254 147 8 319 321 324 317 303 299 302 303 302 301 299 295 293 292 292 295 300 304 306 305 306 305 305 307 311 314 315 316 319 321 321 320 322 324 323 320 321 329 337 345 351 352 348 350 359 7 12 20 32 37 39 43 44 39 41 45 43 38 41 47 51 52 50 49 50 53 57 63 69 77 81 76 64 58 59 64 65 60 56
307 291 247 246 263 275 315 317 306 302 302 298 294 296 301 302 301 298 296 298 300 302 301 302 304 307 309 311 310 309 309 310 311 312 313 314 317 320 320 319 323 328 327 323 329 342 350 352 353 352 351 356 5 11 15 23 33 36 37 39 40 39 41 44 42 38 41 47 50 49 48 50 52 53 58 65 67 69 74 75 71 64 61 65 68 62 58
235 234 229 241 263 284 297 300 297 293 290 291 295 298 300 301 300 296 297 303 308 308 307 308 310 311 311 311 310 310 311 313 313 312 311 314 320 323 322 321 327 335 336 332 338 348 354 356 355 353 354 3 10 14 18 27 34 35 37 39 37 34 35 37 37 38 42 45 47 48 51 58 61 60 64 67 68 70 73 72 69 65 64 67 71 66 60
215 239 254 262 272 283 288 288 284 279 283 290 294 295 295 295 293 293 299 306 309 309 308 311 312 311 310 311 311 311 310 310 309 309 311 316 322 324 324 327 333 339 340 337 339 343 348 354 356 354 356 7 15 16 20 30 37 37 40 43 39 33 32 33 35 38 42 45 50 54 57 61 64 66 69 71 72 73 73 71 68 66 62 60 58 54 49
266 272 271 271 274 273 269 272 274 270 276 285 286 285 290 293 291 295 302 307 309 307 307 310 310 307 308 312 313 312 310 309 310 313 317 321 324 326 331 335 334 330 327 328 333 337 342 349 354 356 360 10 16 17 22 32 38 38 40 44 44 38 34 36 38 37 38 44 52 58 61 61 62 65 68 70 71 72 72 71 68 65 62 58 53 47 41
298 300 287 269 263 260 255 261 273 278 281 284 282 283 289 290 291 296 300 304 306 307 307 307 304 304 310 315 314 313 314 315 316 319 322 324 326 330 336 339 334 327 325 327 332 335 337 344 353 359 6 14 18 20 25 31 37 38 37 40 44 39 34 36 39 37 40 49 55 57 60 60 59 62 65 65 65 66 68 69 67 63 62 58 49 41 38
281 304 297 272 271 285 282 273 269 276 286 286 283 286 290 289 288 290 293 298 300 300 301 301 300 304 311 314 313 314 317 320 322 323 323 325 330 335 339 340 338 336 336 337 343 344 341 345 355 3 8 14 20 22 25 28 34 37 36 39 46 43 35 37 43 42 47 55 56 56 58 59 58 59 61 59 60 61 62 62 62 60 59 56 48 41 39
224 248 264 267 269 276 281 283 282 284 288 286 285 287 290 290 291 292 294 295 294 292 294 297 300 304 309 311 312 316 318 319 318 319 322 327 331 334 338 339 339 341 342 344 355 357 352 351 358 4 7 12 18 22 23 25 29 34 35 40 46 43 36 39 45 47 51 55 56 57 59 59 57 57 56 55 56 55 53 53 53 52 53 51 46 41 38
238 249 263 270 269 266 268 273 278 283 284 285 287 288 289 290 292 293 293 292 291 293 296 299 300 303 306 308 311 313 313 311 310 312 318 324 327 329 335 338 339 345 353 357 351 353 354 357 2 3 3 8 15 18 19 21 25 30 36 42 44 42 39 38 39 43 47 50 53 56 57 56 56 54 51 50 51 47 45 46 44 42 43 42 38 36 34
248 255 263 269 272 272 272 271 273 276 277 278 282 287 289 291 291 290 291 292 293 295 299 301 302 303 304 306 309 309 307 309 311 311 315 322 326 328 331 334 337 346 356 352 337 343 351 360 5 2 0 6 13 14 14 17 20 24 32 38 40 41 44 42 37 39 41 41 42 45 44 45 47 45 40 39 39 35 34 35 33 31 31 29 26 25 24
249 253 261 269 273 276 276 277 278 280 280 279 280 283 286 290 292 294 294 294 295 297 299 299 299 299 301 305 309 309 308 310 313 312 315 322 327 327 328 330 334 340 339 330 332 340 348 357 2 359 359 7 11 7 7 13 15 15 21 29 31 33 37 36 32 32 32 29 29 31 30 29 31 29 26 25 24 21 21 21 21 20 19 16 14 14 12
259 260 264 271 275 276 278 281 283 283 281 281 283 285 287 291 296 298 297 296 298 300 300 297 295 295 299 304 307 308 310 314 314 313 317 324 325 323 321 322 320 313 308 318 334 342 346 352 356 354 355 1 4 1 2 7 7 5 8 14 18 19 23 24 22 21 21 18 16 15 15 14 15 12 10 9 7 4 5 6 5 4 4 3 3 3 1
262 264 267 272 276 277 281 286 288 287 285 284 287 291 295 298 299 298 297 299 304 307 305 302 300 299 300 304 306 307 312 316 315 314 319 323 319 314 316 319 317 304 299 320 340 347 347 348 349 349 349 352 353 352 354 357 358 355 355 359 4 6 7 7 7 7 6 4 2 0 359 358 357 355 351 350 349 347 347 348 348 347 348 350 350 351 351
260 266 270 275 278 280 285 289 292 295 294 289 288 293 298 301 301 299 297 302 308 310 306 304 301 298 299 302 305 308 314 319 320 318 319 318 314 312 318 324 324 308 298 317 338 349 350 346 341 340 342 343 342 342 342 344 345 345 344 346 348 348 348 349 349 347 345 345 344 344 343 342 341 340 337 337 337 336 335 336 336 336 337 338 338 338 339
265 271 275 278 279 282 286 289 293 298 300 297 294 296 298 298 296 294 295 301 307 309 306 301 295 293 296 300 302 305 311 316 319 320 318 314 311 311 313 316 314 305 298 301 316 334 343 343 338 335 336 335 332 331 332 332 333 333 334 336 335 335 335 335 333 331 331 330 329 330 329 328 327 327 327 327 328 328 327 327 327 328 328 328 329 329 329
269 274 278 279 281 284 289 291 294 298 301 303 304 304 301 296 293 292 296 302 306 307 308 306 299 296 298 301 303 305 310 316 324 327 320 311 306 301 297 298 303 302 299 298 300 311 328 337 337 331 328 328 325 323 322 323 324 324 325 325 325 326 325 325 323 323 323 320 319 319 320 319 319 320 320 319 320 321 321 320 320 321 321 320 321 322 323
270 273 274 278 283 288 292 293 294 296 300 305 311 308 302 300 299 297 299 303 305 306 311 314 311 307 308 309 309 310 314 322 329 325 313 309 309 299 288 287 286 284 287 293 296 302 315 328 332 327 322 321 318 317 316 317 317 316 316 316 316 315 314 314 314 314 314 313 314 314 314 314 314 315 314 314 314 315 315 313 313 314 315 316 317 318 318
273 273 274 279 286 290 291 292 292 293 296 303 309 308 303 301 300 296 295 299 303 306 310 312 313 314 316 315 312 312 315 318 319 314 309 312 321 324 306 294 290 287 290 296 300 302 310 320 323 321 317 314 312 311 312 312 311 310 309 309 308 308 307 306 307 307 307 308 309 309 309 310 310 309 308 308 307 307 306 306 307 308 309 310 311 313 313
273 276 278 283 285 287 290 292 291 292 296 302 307 310 308 303 299 296 296 298 302 307 309 309 309 312 313 311 310 310 311 313 314 309 301 300 308 315 308 301 302 303 303 304 304 304 309 315 316 314 311 309 307 307 308 308 308 308 307 306 305 305 304 303 303 303 303 303 303 303 303 302 301 300 300 301 300 300 300 301 302 303 305 307 308 309 309
274 279 283 283 285 289 293 294 292 294 298 302 307 313 318 315 307 306 307 306 306 309 311 309 309 311 312 310 310 311 314 319 324 319 300 289 293 303 304 303 304 305 305 304 304 305 308 312 312 311 308 307 305 305 306 307 306 306 306 305 305 305 304 303 303 302 301 300 299 298 297 296 295 295 295 295 295 296 297 299 300 301 303 304 305 305 305
275 281 283 285 289 292 293 291 292 294 294 295 298 306 315 315 307 305 308 308 306 305 306 308 310 313 313 310 309 312 316 323 332 340 336 323 320 320 317 313 312 311 309 308 308 310 312 313 312 309 307 305 305 305 306 306 306 305 305 305 304 303 303 302 301 300 299 298 296 294 293 293 292 292 292 292 292 294 296 297 298 300 301 302 302 302 302
274 280 285 289 289 287 286 285 286 286 287 287 290 298 306 307 302 302 305 306 304 304 307 311 315 319 316 312 312 315 314 311 315 325 331 326 320 318 317 316 315 314 313 311 311 313 314 314 313 310 308 306 305 306 307 307 307 306 305 304 304 303 303 302 300 299 298 296 295 294 294 293 293 293 293 293 293 295 296 296 297 298 300 300 299 299 298
271 279 285 285 282 280 280 278 274 277 283 289 292 296 301 302 300 301 304 306 305 308 312 314 317 323 323 316 316 321 317 305 300 305 313 315 313 313 315 316 316 315 315 315 315 317 317 315 313 311 310 307 305 306 306 306 306 306 305 304 304 303 302 301 300 299 298 296 296 296 295 294 295 295 295 295 296 297 297 297 298 298 298 298 297 296 297
272 275 277 278 278 278 275 270 269 275 283 288 288 288 289 289 290 294 299 299 297 301 303 304 308 314 318 314 315 321 320 312 308 310 313 315 316 317 318 318 317 316 316 315 316 317 318 317 314 312 310 307 306 306 306 305 304 303 302 301 301 301 300 300 299 298 297 297 297 297 296 296 298 298 298 298 300 300 299 299 299 298 297 297 296 296 296
272 271 273 276 280 279 275 272 275 279 283 284 282 280 279 277 279 287 292 291 287 288 292 295 299 305 308 309 312 315 314 311 314 317 317 317 319 320 319 319 318 317 317 316 315 315 315 315 314 313 310 308 306 305 305 305 304 303 303 302 302 301 300 300 299 298 298 298 298 297 298 299 299 299 299 300 300 300 300 300 299 299 298 298 297 297 296
275 277 278 279 279 279 279 281 282 282 282 283 282 280 278 275 276 282 288 288 284 283 284 287 291 296 301 303 305 306 307 309 313 316 316 316 317 318 318 317 317 316 315 314 314 313 312 310 309 308 308 307 306 306 305 305 305 304 304 304 304 303 302 302 301 301 301 300 299 299 299 299 298 298 299 299 299 300 300 300 299 299 299 299 298 298 298